Location: *
(49.1466°N, 1.6216°E)
Time: 05:42:45
(UTC+00:00)

SL-8 R/B - Pass Details

Date: 25 September 2023
Orbit: 653 x 663 km, 48.4° (Epoch: 09 December)

Event Time Altitude Azimuth Distance (km) Brightness Sun altitude
Rises 18:31:10 0° 273° (W) 2,973 9.5 -8.2°
Reaches altitude 10° 18:33:31 10° 273° (W) 2,061 7.9 -8.6°
Maximum altitude 18:38:16 81° 187° (S) 666 3.7 -9.4°
Enters shadow 18:42:26 14° 100° (E) 1,835 5.3 -10.1°
